Weather in Plotina

Russia / Republic of Karelia     66°11′48″N   33°21′46″E
temp.,
°C
wind,
m/s
gust,
m/s
humid.,
%
clouds,
%
prec.,
mm/h
press.,
hPa
HPBL,
m
1 march, mon
mon100:00+1wsw5129085 0.0 1004445
03:00+2wsw6159993 0.0 1002661
06:00+2w41491100 0.0 1000573
09:00+1w41389100 0.0 999822
12:00+2w5138965 0.0 997751
15:00+2wnw5148432 0.0 997878
18:000wnw414840 0.0 995606
21:00−1w4158446 0.0 994684
2 march, tue
tue200:00−1w6158233 0.0 993997
03:00−2nw8167666 0.1 9951012
06:00−5nw6158130 0.0 998778
09:00−6nw6158115 0.0 1001756
12:00−4nw713780 0.0 10031079
15:00−3nw613760 0.0 10061213
18:00−5wnw514800 0.0 1007705
21:00−5wnw4128727 0.0 1006463
3 march, wed
wed300:00−6wnw4119116 0.0 1005349
03:00−6wnw311928 0.0 1006288
06:00−7wnw399334 0.0 1005234
09:00−9wnw379217 0.0 1005146
12:00−5w258852 0.0 1003255
15:00−3wsw238976 0.0 1001363
18:00−7sw229533 0.0 99821
21:00−8nw129555 0.0 99721
4 march, thu
thu400:00−9n129886 0.1 99724
03:00−9nnw249693 0.3 998127
06:00−8nnw389699 0.5 998281
09:00−9nw3891100 0.6 998250
12:00−7nw378749 0.0 998420
15:00−6nw488747 0.0 998562
18:00−10nw239378 0.0 99936
21:00−8ne5109185 0.5 1001639
5 march, fri
fri500:00−16nne239286 0.0 100374
03:00−16nnw229568 0.0 100620
06:00−16nw239865 0.0 100742
09:00−16nw249569 0.0 100898
12:00−11wnw239033 0.0 1009230
15:00−8w378558 0.0 1009471
18:00−9wnw399199 0.0 1008359
21:00−9wnw399099 0.0 1008249